Home > Weather > Morden > Past weeks

Flag for Canada Weather for the Past 2 Weeks in Morden, Manitoba, Canada

Now
61 °F

Refreshingly cool.


Feels Like: 61 °F
Forecast: 35 / 61 °F
Wind: 14 mph from Northeast

Location: Morden CDA CS

Current Time: Apr 30, 2016 at 2:18:57 PM

Latest Report: Apr 30, 2016 at 2:00 PM


Visibility: N/A

Pressure: 30.29 "Hg

Humidity: 27%

Dew Point: 27 °F

Location of MordenLocation

Historic Weather in Morden — Graph

°F

Morden Temperature Yesterday

Maximum temperature yesterday: 63 °F (at 5:00 PM)
Minimum temperature yesterday: 33 °F (at 6:00 AM)
Average temperature yesterday: 49 °F

High & Low Weather Summary for the Past Weeks

 TemperatureHumidityPressure
High71 °F (Apr 20, 5:00 PM)100% (Apr 15, 4:00 PM)30.54 "Hg (Apr 15, 4:00 PM)
Low28 °F (Apr 22, 6:00 AM)15% (Apr 28, 5:00 PM)29.76 "Hg (Apr 15, 1:00 PM)
Average43 °F63%30.16 "Hg
* Reported Apr 15 1:00 PM — Apr 30 1:00 PM, Morden, Weather by CustomWeather, © 2016

Note: Actual official high and low records may vary slightly from our data, if they occured in-between our weather recording intervals... More about our weather records

Advertising

Morden Weather History for the Previous 24 Hours

Scroll right to see more
 ConditionsComfort  
Time TempWeatherWind HumidityBarometerVisibility
1:00 PM
Sat, Apr 30
59 °FRefreshingly cool.14 mph28%30.31 "HgN/A
12:00 PM56 °FRefreshingly cool.14 mph35%30.34 "HgN/A
11:00 AM54 °FCool.8 mph40%30.36 "HgN/A
10:00 AM50 °FCool.3 mph49%30.37 "HgN/A
9:00 AM46 °FCool.2 mph55%30.37 "HgN/A
8:00 AM40 °FQuite cool.5 mph65%30.36 "HgN/A
7:00 AM36 °FChilly.6 mph64%30.34 "HgN/A
6:00 AM36 °FChilly.5 mph64%30.32 "HgN/A
5:00 AM37 °FChilly.5 mph60%30.30 "HgN/A
4:00 AM38 °FChilly.5 mph58%30.29 "HgN/A
3:00 AM39 °FChilly.5 mph55%30.28 "HgN/A
2:00 AM40 °FChilly.3 mph55%30.27 "HgN/A
1:00 AM43 °FQuite cool.2 mph47%30.27 "HgN/A
12:00 AM45 °FCool.7 mph44%30.25 "HgN/A
11:00 PM
Fri, Apr 29
49 °FCool.10 mph39%30.24 "HgN/A
10:00 PM51 °FCool.8 mph43%30.24 "HgN/A
9:00 PM55 °FCool.8 mph34%30.23 "HgN/A
8:00 PM59 °FRefreshingly cool.8 mph28%30.22 "HgN/A
7:00 PM61 °FRefreshingly cool.10 mph26%30.22 "HgN/A
6:00 PM60 °FRefreshingly cool.13 mph27%30.20 "HgN/A
5:00 PM63 °FMild.12 mph22%30.19 "HgN/A
4:00 PM62 °FRefreshingly cool.9 mph21%30.20 "HgN/A
3:00 PM60 °FRefreshingly cool.9 mph25%30.22 "HgN/A
2:00 PM58 °FRefreshingly cool.8 mph24%30.24 "HgN/A
Weather by CustomWeather, © 2016

See weather overviewHow to use our weather pages